**Search for your results by entering your last name OR bib number OR search by age group to compare your stats with others
Individual Search
 
Bib:
Last Name:
All Participants Search
 
Top Ten Women
PlaceNameTimePace
1.Holly Gureski20:06.366:27/M
2.Lauren Fritz21:13.286:48/M
3.Amara Smith22:16.497:08/M
4.Amber Schneider23:16.127:27/M
5.Alma Rivera23:32.807:33/M
6.Krystal Howell23:47.837:37/M
7.Kelsey Tomlin23:55.137:40/M
8.Becca Tomlin23:56.747:40/M
9.Diana Sandoval23:57.797:41/M
10.Ally McDeavitt24:01.897:42/M
Top Ten Men
PlaceNameTimePace
1.Matthew Noriega16:48.945:23/M
2.Daniel Lopez16:59.355:27/M
3.Brandon Hernandez17:33.915:38/M
4.Rodrigo Silva17:52.415:44/M
5.Abraham Checkro Tembe18:52.146:03/M
6.Isiah Mejia19:17.136:11/M
7.Paul Biju-Duval19:36.156:17/M
8.George Coello19:45.886:20/M
9.Hayden Farr20:08.316:27/M
10.William Boyce20:29.216:34/M
Contact us for results help

Gallery of Events

Contact Us

Address:
172 Trademark Drive
Buda, Texas 78610

Phone:
(512) 386 - 7966

Email:
info@cadencesports.com